| time (UTC) | temp C | wind direction | speed KPH | gust KPH | rain 1hr cm | rain 24hr cm | rain mn cm | humidity % | barometer mb |
| 20260507160058 | 16 | 19 | 12.9 | 27.4 | 0.00 | 0.00 | 0.00 | 82 | 1017.0 |
| 20260507160039 | 16 | 53 | 14.5 | 30.6 | 0.00 | 0.00 | 0.00 | 83 | 1019.6 |
| 20260507154547 | 16 | 82 | 16.1 | 27.4 | 0.00 | 0.00 | 0.00 | 83 | 1016.6 |
| 20260507154541 | 16 | 59 | 17.7 | 27.4 | 0.00 | 0.00 | 0.00 | 84 | 1019.4 |
| 20260507153054 | 16 | 67 | 11.3 | 27.4 | 0.00 | 0.00 | 0.00 | 84 | 1016.6 |
| 20260507153045 | 16 | 47 | 11.3 | 27.4 | 0.00 | 0.00 | 0.00 | 84 | 1019.3 |
| 20260507151545 | 16 | 51 | 6.4 | 25.7 | 0.00 | 0.00 | 0.00 | 84 | 1016.8 |
| 20260507151532 | 16 | 46 | 6.4 | 25.7 | 0.00 | 0.00 | 0.00 | 85 | 1019.4 |
| 20260507150045 | 16 | 35 | 9.7 | 29.0 | 0.00 | 0.00 | 0.00 | 84 | 1016.4 |
| 20260507150029 | 16 | 24 | 11.3 | 29.0 | 0.00 | 0.00 | 0.00 | 85 | 1019.1 |
| 20260507144548 | 16 | 18 | 12.9 | 32.2 | 0.00 | 0.00 | 0.00 | 85 | 1016.1 |
| 20260507144526 | 16 | 9 | 11.3 | 32.2 | 0.00 | 0.00 | 0.00 | 85 | 1018.8 |
| 20260507143047 | 16 | 340 | 9.7 | 27.4 | 0.00 | 0.00 | 0.00 | 85 | 1015.8 |
| 20260507143025 | 16 | 15 | 12.9 | 27.4 | 0.00 | 0.00 | 0.00 | 86 | 1018.6 |
| 20260507141552 | 16 | 45 | 9.7 | 22.5 | 0.00 | 0.00 | 0.00 | 86 | 1015.8 |
| 20260507141522 | 16 | 15 | 9.7 | 22.5 | 0.00 | 0.00 | 0.00 | 86 | 1018.4 |
| 20260507140106 | 16 | 36 | 6.4 | 33.8 | 0.00 | 0.00 | 0.00 | 86 | 1016.4 |
| 20260507140021 | 16 | 5 | 8.0 | 22.5 | 0.00 | 0.00 | 0.00 | 86 | 1019.2 |
| 20260507134545 | 16 | 5 | 11.3 | 27.4 | 0.00 | 0.00 | 0.00 | 85 | 1015.9 |
| 20260507134521 | 16 | 19 | 14.5 | 27.4 | 0.00 | 0.00 | 0.00 | 86 | 1018.6 |
| 20260507133044 | 16 | 82 | 8.0 | 25.7 | 0.00 | 0.00 | 0.00 | 85 | 1015.8 |
| 20260507133018 | 16 | 40 | 6.4 | 25.7 | 0.00 | 0.00 | 0.00 | 85 | 1018.6 |
| 20260507131545 | 16 | 51 | 14.5 | 32.2 | 0.00 | 0.00 | 0.00 | 84 | 1016.2 |
| 20260507131514 | 16 | 333 | 12.9 | 29.0 | 0.00 | 0.00 | 0.00 | 84 | 1018.9 |
| 20260507130051 | 16 | 329 | 14.5 | 33.8 | 0.00 | 0.00 | 0.00 | 83 | 1015.8 |
| 20260507130011 | 16 | 27 | 14.5 | 33.8 | 0.00 | 0.00 | 0.00 | 84 | 1018.4 |
| 20260507124549 | 16 | 46 | 14.5 | 29.0 | 0.00 | 0.00 | 0.00 | 82 | 1015.6 |
| 20260507124510 | 16 | 54 | 14.5 | 30.6 | 0.00 | 0.00 | 0.00 | 83 | 1018.2 |
| 20260507123056 | 17 | 327 | 6.4 | 22.5 | 0.00 | 0.00 | 0.00 | 82 | 1015.8 |
| 20260507123006 | 17 | 32 | 4.8 | 22.5 | 0.00 | 0.00 | 0.00 | 82 | 1018.5 |
| 20260507121547 | 17 | 84 | 6.4 | 17.7 | 0.00 | 0.00 | 0.00 | 82 | 1015.6 |
| 20260507121504 | 17 | 62 | 6.4 | 17.7 | 0.00 | 0.00 | 0.00 | 82 | 1018.1 |
| 20260507120046 | 17 | 40 | 8.0 | 24.1 | 0.00 | 0.00 | 0.00 | 82 | 1015.3 |
| 20260507120001 | 17 | 46 | 8.0 | 24.1 | 0.00 | 0.00 | 0.00 | 82 | 1017.8 |
| 20260507114606 | 17 | 29 | 4.8 | 16.1 | 0.00 | 0.00 | 0.00 | 82 | 1017.6 |
| 20260507114550 | 17 | 346 | 6.4 | 16.1 | 0.00 | 0.00 | 0.00 | 82 | 1015.0 |
| 20260507113056 | 17 | 57 | 8.0 | 27.4 | 0.00 | 0.00 | 0.00 | 82 | 1017.3 |
| 20260507113047 | 17 | 27 | 6.4 | 27.4 | 0.00 | 0.00 | 0.00 | 81 | 1014.6 |
| 20260507111553 | 17 | 333 | 6.4 | 24.1 | 0.00 | 0.00 | 0.00 | 82 | 1016.7 |
| 20260507111547 | 17 | 47 | 9.7 | 24.1 | 0.00 | 0.00 | 0.00 | 81 | 1014.0 |
| 20260507110052 | 17 | 26 | 9.7 | 20.9 | 0.00 | 0.00 | 0.00 | 82 | 1016.6 |
| 20260507110046 | 17 | 32 | 9.7 | 20.9 | 0.00 | 0.00 | 0.00 | 81 | 1013.9 |
| 20260507104551 | 17 | 42 | 6.4 | 22.5 | 0.00 | 0.00 | 0.00 | 81 | 1016.5 |
| 20260507104544 | 17 | 13 | 8.0 | 25.7 | 0.00 | 0.00 | 0.00 | 81 | 1013.8 |
| 20260507103050 | 17 | 26 | 4.8 | 22.5 | 0.00 | 0.00 | 0.00 | 82 | 1016.7 |
| 20260507103043 | 17 | 36 | 6.4 | 22.5 | 0.00 | 0.00 | 0.00 | 81 | 1014.0 |
| 20260507101548 | 17 | 55 | 8.0 | 22.5 | 0.00 | 0.00 | 0.00 | 82 | 1016.7 |
| 20260507101546 | 17 | 5 | 4.8 | 22.5 | 0.00 | 0.00 | 0.00 | 82 | 1014.0 |
| 20260507100045 | 17 | 46 | 8.0 | 17.7 | 0.00 | 0.00 | 0.00 | 82 | 1016.6 |
| 20260507100041 | 17 | 348 | 9.7 | 17.7 | 0.00 | 0.00 | 0.00 | 81 | 1013.7 |
| 20260507094547 | 17 | 29 | 4.8 | 16.1 | 0.00 | 0.00 | 0.00 | 81 | 1013.9 |
| 20260507094544 | 17 | 29 | 3.2 | 16.1 | 0.00 | 0.00 | 0.00 | 82 | 1016.6 |
| 20260507093049 | 17 | 19 | 8.0 | 19.3 | 0.00 | 0.00 | 0.00 | 81 | 1014.1 |
| 20260507093043 | 17 | 56 | 8.0 | 19.3 | 0.00 | 0.00 | 0.00 | 82 | 1016.8 |
| 20260507091548 | 17 | 52 | 3.2 | 17.7 | 0.00 | 0.00 | 0.00 | 81 | 1013.9 |
| 20260507091541 | 17 | 49 | 1.6 | 17.7 | 0.00 | 0.00 | 0.00 | 82 | 1016.6 |
| 20260507090047 | 17 | 38 | 6.4 | 19.3 | 0.00 | 0.00 | 0.00 | 81 | 1014.0 |
| 20260507090042 | 17 | 66 | 6.4 | 19.3 | 0.00 | 0.00 | 0.00 | 82 | 1016.7 |
| 20260507084544 | 17 | 38 | 6.4 | 22.5 | 0.00 | 0.00 | 0.00 | 82 | 1014.0 |
| 20260507084539 | 17 | 355 | 9.7 | 22.5 | 0.00 | 0.00 | 0.00 | 82 | 1016.7 |
| 20260507083049 | 17 | 360 | 4.8 | 17.7 | 0.00 | 0.00 | 0.00 | 81 | 1014.0 |
| 20260507083046 | 17 | 19 | 4.8 | 17.7 | 0.00 | 0.00 | 0.00 | 82 | 1016.6 |
| 20260507081542 | 17 | 14 | 3.2 | 14.5 | 0.00 | 0.00 | 0.00 | 81 | 1014.1 |
| 20260507081536 | 17 | 13 | 4.8 | 14.5 | 0.00 | 0.00 | 0.00 | 82 | 1016.7 |
| 20260507080116 | 17 | 5 | 6.4 | 16.1 | 0.00 | 0.00 | 0.00 | 82 | 1014.0 |
| 20260507080040 | 17 | 355 | 8.0 | 16.1 | 0.00 | 0.00 | 0.00 | 82 | 1016.7 |
| 20260507074546 | 17 | 17 | 4.8 | 16.1 | 0.00 | 0.00 | 0.00 | 82 | 1013.9 |
| 20260507074543 | 17 | 350 | 4.8 | 16.1 | 0.00 | 0.00 | 0.00 | 82 | 1016.6 |
| 20260507073050 | 17 | 328 | 4.8 | 16.1 | 0.00 | 0.00 | 0.00 | 82 | 1014.3 |
| 20260507073035 | 17 | 337 | 4.8 | 16.1 | 0.00 | 0.00 | 0.00 | 82 | 1016.9 |
| 20260507071559 | 17 | 15 | 6.4 | 19.3 | 0.00 | 0.00 | 0.00 | 82 | 1014.4 |
| 20260507071552 | 17 | 15 | 6.4 | 12.9 | 0.00 | 0.00 | 0.00 | 82 | 1017.0 |
| 20260507070051 | 17 | 71 | 8.0 | 19.3 | 0.00 | 0.00 | 0.00 | 82 | 1014.4 |
| 20260507070035 | 17 | 67 | 9.7 | 19.3 | 0.00 | 0.00 | 0.00 | 82 | 1017.1 |
| 20260507064554 | 17 | 39 | 9.7 | 24.1 | 0.00 | 0.00 | 0.00 | 82 | 1014.3 |
| 20260507064531 | 17 | 39 | 9.7 | 24.1 | 0.00 | 0.00 | 0.00 | 82 | 1016.8 |
| 20260507063054 | 17 | 25 | 6.4 | 20.9 | 0.00 | 0.00 | 0.00 | 82 | 1014.3 |
| 20260507063032 | 17 | 17 | 6.4 | 19.3 | 0.00 | 0.00 | 0.00 | 82 | 1016.8 |
| 20260507061551 | 18 | 34 | 9.7 | 20.9 | 0.00 | 0.00 | 0.00 | 82 | 1014.2 |
| 20260507061527 | 18 | 52 | 9.7 | 20.9 | 0.00 | 0.00 | 0.00 | 83 | 1016.8 |
| 20260507060047 | 18 | 69 | 8.0 | 17.7 | 0.00 | 0.00 | 0.00 | 82 | 1013.9 |
| 20260507060024 | 18 | 94 | 6.4 | 17.7 | 0.00 | 0.00 | 0.00 | 83 | 1016.4 |
| 20260507054551 | 18 | 32 | 6.4 | 17.7 | 0.00 | 0.00 | 0.00 | 82 | 1013.7 |
| 20260507054522 | 18 | 50 | 6.4 | 17.7 | 0.00 | 0.00 | 0.00 | 83 | 1016.3 |
| 20260507053047 | 18 | 40 | 4.8 | 20.9 | 0.00 | 0.00 | 0.00 | 82 | 1013.6 |
| 20260507053020 | 18 | 55 | 4.8 | 20.9 | 0.00 | 0.00 | 0.00 | 82 | 1016.1 |
| 20260507051544 | 18 | 40 | 9.7 | 25.7 | 0.00 | 0.00 | 0.00 | 81 | 1013.0 |
| 20260507051517 | 18 | 30 | 8.0 | 25.7 | 0.00 | 0.00 | 0.00 | 82 | 1015.4 |
| 20260507050047 | 18 | 51 | 6.4 | 24.1 | 0.00 | 0.00 | 0.00 | 81 | 1013.3 |
| 20260507050014 | 18 | 51 | 6.4 | 24.1 | 0.00 | 0.00 | 0.00 | 82 | 1015.7 |
| 20260507044546 | 18 | 35 | 6.4 | 20.9 | 0.00 | 0.00 | 0.00 | 81 | 1013.1 |
| 20260507044511 | 18 | 5 | 8.0 | 17.7 | 0.00 | 0.00 | 0.00 | 82 | 1015.6 |
| 20260507043047 | 18 | 61 | 6.4 | 20.9 | 0.00 | 0.00 | 0.00 | 82 | 1013.6 |
| 20260507043011 | 18 | 26 | 4.8 | 20.9 | 0.00 | 0.00 | 0.00 | 82 | 1016.0 |
| 20260507041547 | 18 | 348 | 9.7 | 22.5 | 0.00 | 0.00 | 0.00 | 81 | 1013.5 |
| 20260507041508 | 18 | 10 | 9.7 | 17.7 | 0.00 | 0.00 | 0.00 | 82 | 1015.8 |
| 20260507040057 | 18 | 26 | 6.4 | 20.9 | 0.00 | 0.00 | 0.00 | 81 | 1012.9 |
| 20260507040005 | 18 | 52 | 8.0 | 19.3 | 0.00 | 0.00 | 0.00 | 82 | 1015.4 |
| 20260507034552 | 18 | 38 | 8.0 | 22.5 | 0.00 | 0.00 | 0.00 | 81 | 1012.5 |
| 20260507034502 | 18 | 15 | 8.0 | 19.3 | 0.00 | 0.00 | 0.00 | 82 | 1014.8 |
| 20260507033100 | 18 | 28 | 6.4 | 17.7 | 0.00 | 0.00 | 0.00 | 82 | 1014.8 |
| 20260507033048 | 18 | 26 | 4.8 | 16.1 | 0.00 | 0.00 | 0.00 | 81 | 1012.4 |
| 20260507031605 | 18 | 5 | 8.0 | 20.9 | 0.00 | 0.00 | 0.00 | 81 | 1014.5 |
| 20260507031545 | 18 | 338 | 9.7 | 20.9 | 0.00 | 0.00 | 0.00 | 81 | 1012.5 |
| 20260507030057 | 18 | 48 | 6.4 | 20.9 | 0.00 | 0.00 | 0.00 | 81 | 1014.6 |
| 20260507030052 | 18 | 40 | 6.4 | 22.5 | 0.00 | 0.00 | 0.00 | 80 | 1012.4 |
| 20260507024553 | 19 | 349 | 11.3 | 25.7 | 0.00 | 0.00 | 0.00 | 81 | 1014.4 |
| 20260507024542 | 19 | 360 | 9.7 | 25.7 | 0.00 | 0.00 | 0.00 | 80 | 1012.3 |
| 20260507023049 | 19 | 336 | 8.0 | 25.7 | 0.00 | 0.00 | 0.00 | 80 | 1014.3 |
| 20260507023040 | 19 | 352 | 9.7 | 25.7 | 0.00 | 0.00 | 0.00 | 79 | 1012.3 |
| 20260507021547 | 20 | 5 | 8.0 | 25.7 | 0.00 | 0.00 | 0.00 | 79 | 1014.2 |
| 20260507021545 | 20 | 351 | 12.9 | 25.7 | 0.00 | 0.00 | 0.00 | 79 | 1012.0 |
| 20260507020047 | 20 | 334 | 11.3 | 17.7 | 0.00 | 0.00 | 0.00 | 79 | 1013.9 |
| 20260507014542 | 20 | 5 | 8.0 | 22.5 | 0.00 | 0.00 | 0.00 | 77 | 1011.5 |
| 20260507014540 | 20 | 33 | 9.7 | 22.5 | 0.00 | 0.00 | 0.00 | 78 | 1013.5 |
| 20260507013043 | 21 | 55 | 6.4 | 25.7 | 0.00 | 0.00 | 0.00 | 77 | 1010.9 |
| 20260507013039 | 21 | 46 | 6.4 | 25.7 | 0.00 | 0.00 | 0.00 | 77 | 1013.0 |
| 20260507011553 | 21 | 344 | 8.0 | 19.3 | 0.00 | 0.00 | 0.00 | 76 | 1010.7 |
| 20260507011538 | 21 | 338 | 8.0 | 17.7 | 0.00 | 0.00 | 0.00 | 76 | 1013.0 |
| 20260507010045 | 22 | 360 | 9.7 | 19.3 | 0.00 | 0.00 | 0.00 | 74 | 1010.8 |
| 20260507010030 | 22 | 360 | 9.7 | 19.3 | 0.00 | 0.00 | 0.00 | 75 | 1013.1 |
| 20260507004542 | 22 | 350 | 8.0 | 25.7 | 0.00 | 0.00 | 0.00 | 74 | 1010.4 |
| 20260507004526 | 22 | 355 | 8.0 | 25.7 | 0.00 | 0.00 | 0.00 | 74 | 1012.7 |
| 20260507003043 | 23 | 68 | 8.0 | 22.5 | 0.00 | 0.00 | 0.00 | 73 | 1010.3 |
| 20260507003023 | 23 | 52 | 11.3 | 20.9 | 0.00 | 0.00 | 0.00 | 74 | 1012.7 |
| 20260507001555 | 23 | 348 | 9.7 | 19.3 | 0.00 | 0.00 | 0.00 | 72 | 1010.3 |
| 20260507001521 | 23 | 360 | 11.3 | 19.3 | 0.00 | 0.00 | 0.00 | 73 | 1012.4 |
| 20260507000046 | 24 | 46 | 8.0 | 24.1 | 0.00 | 0.00 | 0.00 | 71 | 1010.0 |
| 20260507000019 | 24 | 54 | 8.0 | 24.1 | 0.00 | 0.00 | 0.00 | 72 | 1012.1 |
| 20260506234552 | 25 | 350 | 9.7 | 22.5 | 0.00 | 0.00 | 0.00 | 70 | 1009.6 |
| 20260506234517 | 25 | 67 | 9.7 | 22.5 | 0.00 | 0.00 | 0.00 | 71 | 1011.8 |
| 20260506233048 | 25 | 45 | 9.7 | 24.1 | 0.00 | 0.00 | 0.00 | 71 | 1009.6 |
| 20260506233017 | 25 | 26 | 9.7 | 24.1 | 0.00 | 0.00 | 0.00 | 72 | 1011.5 |
| 20260506231549 | 26 | 80 | 16.1 | 29.0 | 0.00 | 0.00 | 0.00 | 69 | 1009.2 |
| 20260506231515 | 26 | 79 | 16.1 | 29.0 | 0.00 | 0.00 | 0.00 | 70 | 1011.2 |
| 20260506230052 | 27 | 41 | 14.5 | 25.7 | 0.00 | 0.00 | 0.00 | 69 | 1009.0 |
| 20260506230014 | 27 | 347 | 14.5 | 25.7 | 0.00 | 0.00 | 0.00 | 69 | 1011.0 |
| 20260506224543 | 27 | 39 | 12.9 | 24.1 | 0.00 | 0.00 | 0.00 | 69 | 1008.9 |
| 20260506224523 | 27 | 50 | 12.9 | 24.1 | 0.00 | 0.00 | 0.00 | 70 | 1010.9 |
| 20260506223043 | 28 | 53 | 11.3 | 27.4 | 0.00 | 0.00 | 0.00 | 69 | 1008.8 |
| 20260506223013 | 28 | 355 | 11.3 | 27.4 | 0.00 | 0.00 | 0.00 | 70 | 1010.7 |
| 20260506221551 | 28 | 53 | 8.0 | 19.3 | 0.00 | 0.00 | 0.00 | 71 | 1008.4 |
| 20260506221511 | 28 | 27 | 9.7 | 19.3 | 0.00 | 0.00 | 0.00 | 71 | 1010.5 |
| 20260506220058 | 28 | 352 | 11.3 | 27.4 | 0.00 | 0.00 | 0.00 | 70 | 1008.3 |
| 20260506220012 | 28 | 5 | 8.0 | 27.4 | 0.00 | 0.00 | 0.00 | 71 | 1010.4 |
| 20260506214547 | 29 | 19 | 11.3 | 27.4 | 0.00 | 0.00 | 0.00 | 67 | 1008.3 |
| 20260506214511 | 29 | 328 | 11.3 | 27.4 | 0.00 | 0.00 | 0.00 | 68 | 1010.4 |
| 20260506213044 | 31 | 42 | 6.4 | 16.1 | 0.00 | 0.00 | 0.00 | 65 | 1008.2 |
| 20260506213019 | 31 | 49 | 4.8 | 16.1 | 0.00 | 0.00 | 0.00 | 66 | 1010.3 |
| 20260506211547 | 30 | 78 | 1.6 | 12.9 | 0.00 | 0.00 | 0.00 | 65 | 1008.2 |
| 20260506211516 | 30 | 80 | 1.6 | 12.9 | 0.00 | 0.00 | 0.00 | 66 | 1010.3 |
| 20260506210059 | 31 | 138 | 6.4 | 17.7 | 0.00 | 0.00 | 0.00 | 66 | 1008.2 |
| 20260506210010 | 31 | 46 | 6.4 | 17.7 | 0.00 | 0.00 | 0.00 | 66 | 1010.4 |
| 20260506204550 | 31 | 16 | 3.2 | 9.7 | 0.00 | 0.00 | 0.00 | 66 | 1008.4 |
| 20260506204507 | 30 | 17 | 3.2 | 9.7 | 0.00 | 0.00 | 0.00 | 69 | 1010.6 |
| 20260506203130 | 30 | 0 | 4.8 | 12.9 | 0.00 | 0.00 | 0.00 | 65 | 1008.5 |
| 20260506203006 | 30 | 83 | 3.2 | 12.9 | 0.00 | 0.00 | 0.00 | 66 | 1010.7 |
| 20260506201546 | 30 | 55 | 0.0 | 11.3 | 0.00 | 0.00 | 0.00 | 67 | 1008.7 |
| 20260506201503 | 30 | 119 | 0.0 | 11.3 | 0.00 | 0.00 | 0.00 | 68 | 1010.8 |
| 20260506200100 | 30 | 28 | 1.6 | 12.9 | 0.00 | 0.00 | 0.00 | 71 | 1011.0 |
| 20260506200050 | 30 | 28 | 3.2 | 12.9 | 0.00 | 0.00 | 0.00 | 70 | 1009.1 |
| 20260506194558 | 30 | 123 | 3.2 | 11.3 | 0.00 | 0.00 | 0.00 | 71 | 1011.2 |
| 20260506194550 | 30 | 118 | 3.2 | 11.3 | 0.00 | 0.00 | 0.00 | 71 | 1009.1 |
| 20260506193056 | 29 | 55 | 3.2 | 12.9 | 0.00 | 0.00 | 0.00 | 74 | 1011.2 |
| 20260506193041 | 29 | 52 | 3.2 | 12.9 | 0.00 | 0.00 | 0.00 | 74 | 1009.2 |
| 20260506191554 | 28 | 153 | 3.2 | 9.7 | 0.00 | 0.00 | 0.00 | 75 | 1011.3 |
| 20260506191544 | 28 | 104 | 1.6 | 12.9 | 0.00 | 0.00 | 0.00 | 75 | 1009.4 |
| 20260506190053 | 28 | 45 | 1.6 | 12.9 | 0.00 | 0.00 | 0.00 | 76 | 1011.4 |
| 20260506190050 | 28 | 44 | 4.8 | 12.9 | 0.00 | 0.00 | 0.00 | 76 | 1009.4 |
| 20260506184555 | 28 | 117 | 6.4 | 14.5 | 0.00 | 0.00 | 0.00 | 77 | 1011.6 |
| 20260506183047 | 27 | 109 | 6.4 | 14.5 | 0.00 | 0.00 | 0.00 | 77 | 1012.0 |
| 20260506183045 | 27 | 109 | 8.0 | 14.5 | 0.00 | 0.00 | 0.00 | 76 | 1009.9 |
| 20260506181545 | 27 | 44 | 4.8 | 14.5 | 0.00 | 0.00 | 0.00 | 79 | 1012.1 |
| 20260506181542 | 27 | 32 | 3.2 | 11.3 | 0.00 | 0.00 | 0.00 | 79 | 1010.1 |
| 20260506180045 | 27 | 82 | 8.0 | 16.1 | 0.00 | 0.00 | 0.00 | 78 | 1010.1 |
| 20260506174610 | 27 | 66 | 6.4 | 16.1 | 0.00 | 0.00 | 0.00 | 80 | 1010.2 |
| 20260506174541 | 27 | 67 | 6.4 | 16.1 | 0.00 | 0.00 | 0.00 | 80 | 1012.4 |
| 20260506173054 | 27 | 51 | 6.4 | 16.1 | 0.00 | 0.00 | 0.00 | 82 | 1010.1 |
| 20260506173050 | 27 | 37 | 6.4 | 16.1 | 0.00 | 0.00 | 0.00 | 82 | 1012.3 |
| 20260506171543 | 26 | 13 | 6.4 | 14.5 | 0.00 | 0.00 | 0.00 | 82 | 1010.3 |
| 20260506171538 | 26 | 19 | 4.8 | 14.5 | 0.00 | 0.00 | 0.00 | 83 | 1012.6 |
| 20260506170046 | 26 | 91 | 3.2 | 12.9 | 0.00 | 0.00 | 0.00 | 82 | 1010.2 |
| 20260506170036 | 26 | 91 | 3.2 | 12.9 | 0.00 | 0.00 | 0.00 | 83 | 1012.7 |
| 20260506164547 | 26 | 37 | 0.0 | 6.4 | 0.00 | 0.00 | 0.00 | 84 | 1010.3 |
| 20260506164533 | 26 | 37 | 1.6 | 6.4 | 0.00 | 0.00 | 0.00 | 85 | 1012.6 |
| 20260506163103 | 26 | 36 | 4.8 | 9.7 | 0.00 | 0.00 | 0.00 | 86 | 1010.3 |
| 20260506163050 | 26 | 36 | 3.2 | 9.7 | 0.00 | 0.00 | 0.00 | 87 | 1012.5 |
| 20260506161626 | 25 | 13 | 3.2 | 8.0 | 0.00 | 0.00 | 0.00 | 90 | 1012.5 |
| 20260506161542 | 25 | 5 | 3.2 | 8.0 | 0.00 | 0.00 | 0.00 | 89 | 1010.2 |